User: anonymous   Login
Location: Muenchen
(48.1800°N, 11.5800°E)
Time: 22:04:05
(UTC+02:00)
Language:

ISS - Orbit

View from above orbital plane
View from above orbital plane
View from above satellite
View from above satellite

Ground track
Ground track

The orbit data is extracted from the following two-line orbital elements,

1 25544U 98067A   15089.52353579  .00015021  00000-0  22297-3 0  9996
2 25544 051.6452 117.0009 0006864 154.4167 296.5045 15.55407364935799
Epoch (UTC): 30 March 2015 12:33:53
Eccentricity: 0.0006864
inclination: 51.6452°
perigee height: 396 km
apogee height: 405 km
right ascension of ascending node: 117.0009°
argument of perigee: 154.4167°
revolutions per day: 15.55407364
mean anomaly at epoch: 296.5045°
orbit number at epoch: 93579

The dashed part of the orbit path shows where the satellite is in the earth's shadow,  

DLR